Location: Pella
(41.4080°N, 92.9160°W)
Time: 16:02:09
(UTC-05:00)

Iridium 91 - Visible Passes

Search period start: 01 September 2014 00:00
Search period end: 11 September 2014 00:00
Orbit: 776 x 779 km, 86.4° (Epoch: 01 September)

Date Brightness Start Highest point End Pass type
(mag) Time Alt. Az. Time Alt. Az. Time Alt. Az.
01 Sep 7.7 01:59:19 22° NNE 01:59:19 22° NNE 02:01:09 10° NNE visible
01 Sep 7.9 03:39:48 12° NW 03:39:48 12° NW 03:40:32 10° NW visible
02 Sep 8.1 01:26:01 16° NNE 01:26:01 16° NNE 01:27:12 10° NNE visible
02 Sep 7.7 03:06:30 17° NNW 03:06:30 17° NNW 03:07:56 10° NNW visible
03 Sep 7.7 02:33:12 20° NNW 02:33:12 20° NNW 02:34:48 10° N visible
04 Sep 7.9 01:59:54 19° N 01:59:54 19° N 02:01:20 10° N visible
05 Sep 8.1 01:26:35 16° NNE 01:26:35 16° NNE 01:27:35 10° NNE visible
05 Sep 8.1 03:07:04 12° NNW 03:07:04 12° NNW 03:07:34 10° NNW visible
06 Sep 8.4 00:53:16 11° NNE 00:53:16 11° NNE 00:53:28 10° NNE visible
06 Sep 8.0 02:33:45 15° NNW 02:33:45 15° NNW 02:34:42 10° NNW visible
07 Sep 8.1 02:00:25 16° N 02:00:25 16° N 02:01:25 10° N visible
08 Sep 8.2 01:27:05 14° N 01:27:05 14° N 01:27:51 10° N visible
09 Sep 8.4 00:53:45 11° NNE 00:53:45 11° NNE 00:53:58 10° NNE visible
09 Sep 8.3 02:34:14 11° NNW 02:34:14 11° NNW 02:34:27 10° NNW visible
10 Sep 8.3 02:00:54 13° N 02:00:54 13° N 02:01:24 10° N visible
